VOI371 MMAA-MMMX

Flight info

Callsign VOI371
Flight time 0h 35m
Altitude 21000
Route TEXCA3B TEXCA DCT TEQ DCT MEX
Aircraft A20N/M-SDE2E3FGHIJ1RWXY/LB1

Departure

Time 2026-05-06 07:17
Airport General Juan N. Álvarez International Airport (MMAA)

Arrival

Time 2026-05-06 07:52
Airport Mexico City Benito Juárez International Airport (MMMX)
Time Latitude Longitude Altitude Speed Heading
2026-05-06 06:42 16.76182 -99.75670 20 ft 0 kts 19°
2026-05-06 07:04 16.76164 -99.75677 22 ft 4 kts 20°
2026-05-06 07:04 16.76139 -99.75687 20 ft 4 kts 25°
2026-05-06 07:05 16.76115 -99.75700 20 ft 4 kts 33°
2026-05-06 07:05 16.76095 -99.75718 22 ft 4 kts 62°
2026-05-06 07:05 16.76091 -99.75735 22 ft 1 kts 108°
2026-05-06 07:05 16.76092 -99.75738 21 ft 0 kts 108°
2026-05-06 07:09 16.76082 -99.75706 20 ft 13 kts 109°
2026-05-06 07:09 16.76042 -99.75580 21 ft 23 kts 108°
2026-05-06 07:09 16.75977 -99.75414 20 ft 23 kts 135°
2026-05-06 07:10 16.75887 -99.75306 21 ft 19 kts 109°
2026-05-06 07:10 16.75844 -99.75173 23 ft 19 kts 108°
2026-05-06 07:10 16.75806 -99.75043 21 ft 19 kts 107°
2026-05-06 07:10 16.75765 -99.74915 21 ft 18 kts 113°
2026-05-06 07:11 16.75725 -99.74792 22 ft 18 kts 108°
2026-05-06 07:11 16.75688 -99.74671 20 ft 17 kts 109°
2026-05-06 07:11 16.75650 -99.74552 21 ft 18 kts 109°
2026-05-06 07:11 16.75613 -99.74433 22 ft 17 kts 106°
2026-05-06 07:12 16.75574 -99.74311 20 ft 19 kts 108°
2026-05-06 07:12 16.75528 -99.74166 23 ft 23 kts 109°
2026-05-06 07:12 16.75478 -99.74002 20 ft 25 kts 108°
2026-05-06 07:12 16.75422 -99.73824 22 ft 26 kts 109°
2026-05-06 07:13 16.75366 -99.73645 22 ft 26 kts 108°
2026-05-06 07:13 16.75312 -99.73475 20 ft 23 kts 108°
2026-05-06 07:13 16.75261 -99.73347 20 ft 14 kts 137°
2026-05-06 07:13 16.75182 -99.73340 21 ft 7 kts 197°
2026-05-06 07:14 16.75162 -99.73346 21 ft 0 kts 197°
2026-05-06 07:15 16.75152 -99.73350 22 ft 3 kts 197°
2026-05-06 07:15 16.75101 -99.73369 22 ft 9 kts 216°
2026-05-06 07:16 16.75100 -99.73431 22 ft 10 kts 289°
2026-05-06 07:16 16.75169 -99.73653 22 ft 63 kts 288°
2026-05-06 07:16 16.75368 -99.74287 21 ft 120 kts 288°
2026-05-06 07:16 16.75670 -99.75271 51 ft 159 kts 288°
2026-05-06 07:17 16.75991 -99.76352 526 ft 155 kts 282°
2026-05-06 07:17 16.76201 -99.77449 958 ft 157 kts 278°
2026-05-06 07:17 16.76340 -99.78640 1364 ft 178 kts 275°
2026-05-06 07:17 16.76463 -99.80017 1710 ft 206 kts 274°
2026-05-06 07:18 16.76637 -99.81614 2029 ft 234 kts 279°
2026-05-06 07:18 16.76968 -99.83354 2480 ft 252 kts 281°
2026-05-06 07:18 16.77301 -99.85149 3282 ft 252 kts 280°
2026-05-06 07:18 16.77583 -99.86957 4075 ft 254 kts 278°
2026-05-06 07:19 16.77814 -99.88788 4878 ft 255 kts 277°
2026-05-06 07:19 16.78007 -99.90402 5564 ft 257 kts 277°
2026-05-06 07:19 16.78324 -99.92254 6262 ft 261 kts 280°
2026-05-06 07:19 16.78686 -99.94149 6796 ft 272 kts 280°
2026-05-06 07:20 16.79061 -99.96120 7335 ft 282 kts 280°
2026-05-06 07:20 16.79603 -99.98118 7884 ft 290 kts 295°
2026-05-06 07:20 16.80838 -99.99758 8606 ft 290 kts 323°
2026-05-06 07:20 16.82657 -100.00603 9371 ft 288 kts 349°
2026-05-06 07:21 16.84634 -100.00538 10054 ft 288 kts 16°
2026-05-06 07:21 16.86442 -99.99541 10336 ft 303 kts 35°
2026-05-06 07:21 16.88254 -99.98305 10639 ft 320 kts 32°
2026-05-06 07:21 16.90133 -99.96981 11070 ft 330 kts 36°
2026-05-06 07:22 16.91952 -99.95493 11605 ft 335 kts 40°
2026-05-06 07:22 16.93658 -99.93835 12238 ft 336 kts 46°
2026-05-06 07:22 16.95224 -99.92013 12894 ft 338 kts 51°
2026-05-06 07:22 16.96632 -99.90035 13548 ft 340 kts 56°
2026-05-06 07:23 16.97857 -99.87924 14170 ft 341 kts 62°
2026-05-06 07:23 16.98895 -99.85692 14735 ft 344 kts 67°
2026-05-06 07:23 16.99731 -99.83339 15307 ft 347 kts 72°
2026-05-06 07:23 17.00354 -99.80893 15878 ft 350 kts 77°
2026-05-06 07:24 17.00748 -99.78378 16480 ft 352 kts 83°
2026-05-06 07:24 17.00908 -99.75817 17085 ft 354 kts 89°
2026-05-06 07:24 17.01000 -99.73240 17724 ft 356 kts 82°
2026-05-06 07:24 17.01753 -99.70771 18274 ft 363 kts 61°
2026-05-06 07:25 17.03435 -99.68765 18680 ft 375 kts 38°
2026-05-06 07:25 17.05814 -99.67570 19091 ft 387 kts 18°
2026-05-06 07:25 17.08442 -99.66884 19512 ft 391 kts 14°
2026-05-06 07:25 17.11106 -99.66271 19975 ft 393 kts 14°
2026-05-06 07:26 17.13782 -99.65640 20422 ft 396 kts 14°
2026-05-06 07:26 17.16471 -99.64983 20781 ft 397 kts 15°
2026-05-06 07:26 17.19162 -99.64309 20902 ft 398 kts 15°
2026-05-06 07:26 17.21865 -99.63622 20902 ft 400 kts 15°
2026-05-06 07:27 17.24570 -99.62929 20925 ft 401 kts 15°
2026-05-06 07:27 17.27278 -99.62232 20919 ft 401 kts 15°
2026-05-06 07:27 17.29990 -99.61532 20923 ft 401 kts 15°
2026-05-06 07:27 17.32697 -99.60833 20918 ft 401 kts 15°
2026-05-06 07:28 17.35409 -99.60132 20913 ft 401 kts 15°
2026-05-06 07:28 17.38080 -99.59443 20916 ft 401 kts 15°
2026-05-06 07:28 17.43502 -99.58061 20924 ft 401 kts 14°
2026-05-06 07:29 17.46210 -99.57380 20921 ft 401 kts 15°
2026-05-06 07:29 17.48921 -99.56692 20916 ft 401 kts 15°
2026-05-06 07:29 17.51629 -99.55999 20889 ft 401 kts 15°
2026-05-06 07:29 17.54341 -99.55300 20895 ft 401 kts 14°
2026-05-06 07:30 17.57049 -99.54598 20894 ft 401 kts 14°
2026-05-06 07:30 17.58844 -99.54132 20899 ft 401 kts 14°
2026-05-06 07:30 17.61584 -99.53420 20901 ft 401 kts 14°
2026-05-06 07:30 17.64260 -99.52724 20896 ft 401 kts 14°
2026-05-06 07:31 17.67001 -99.52010 20850 ft 401 kts 14°
2026-05-06 07:31 17.69708 -99.51306 20857 ft 401 kts 14°
2026-05-06 07:31 17.72413 -99.50603 20856 ft 401 kts 14°
2026-05-06 07:31 17.75119 -99.49899 20858 ft 400 kts 14°
2026-05-06 07:32 17.77820 -99.49196 20858 ft 400 kts 14°
2026-05-06 07:32 17.80529 -99.48491 20811 ft 400 kts 14°
2026-05-06 07:32 17.83229 -99.47788 20808 ft 400 kts 14°
2026-05-06 07:32 17.85935 -99.47083 20807 ft 401 kts 14°
2026-05-06 07:33 17.88643 -99.46378 20810 ft 401 kts 14°
2026-05-06 07:33 17.91346 -99.45674 20810 ft 401 kts 15°
2026-05-06 07:33 17.94053 -99.44968 20784 ft 401 kts 15°
2026-05-06 07:33 17.96758 -99.44263 20783 ft 400 kts 15°
2026-05-06 07:34 17.99461 -99.43558 20775 ft 400 kts 14°
2026-05-06 07:34 18.02166 -99.42852 20778 ft 400 kts 15°
2026-05-06 07:34 18.04871 -99.42146 20776 ft 400 kts 14°
2026-05-06 07:34 18.07576 -99.41440 20777 ft 400 kts 15°
2026-05-06 07:35 18.10277 -99.40734 20777 ft 400 kts 15°
2026-05-06 07:35 18.12950 -99.40035 20784 ft 401 kts 15°
2026-05-06 07:35 18.15650 -99.39329 20780 ft 400 kts 15°
2026-05-06 07:35 18.18354 -99.38622 20773 ft 401 kts 14°
2026-05-06 07:36 18.21059 -99.37915 20757 ft 400 kts 15°
2026-05-06 07:36 18.23756 -99.37210 20761 ft 399 kts 14°
2026-05-06 07:36 18.26443 -99.36507 20762 ft 398 kts 15°
2026-05-06 07:36 18.29128 -99.35804 20762 ft 398 kts 15°
2026-05-06 07:37 18.31813 -99.35100 20759 ft 397 kts 15°
2026-05-06 07:37 18.34495 -99.34398 20763 ft 397 kts 15°
2026-05-06 07:37 18.37178 -99.33695 20768 ft 398 kts 15°
2026-05-06 07:37 18.39862 -99.32991 20759 ft 398 kts 15°
2026-05-06 07:38 18.42547 -99.32287 20758 ft 397 kts 15°
2026-05-06 07:38 18.45235 -99.31582 20767 ft 397 kts 15°
2026-05-06 07:38 18.47915 -99.30879 20766 ft 397 kts 15°
2026-05-06 07:38 18.50597 -99.30176 20790 ft 397 kts 15°
2026-05-06 07:39 18.53278 -99.29472 20816 ft 397 kts 15°
2026-05-06 07:39 18.55964 -99.28766 20840 ft 397 kts 15°
2026-05-06 07:39 18.58646 -99.28062 20861 ft 397 kts 15°
2026-05-06 07:39 18.60418 -99.27596 20878 ft 397 kts 15°
2026-05-06 07:40 18.64006 -99.26653 20915 ft 397 kts 15°
2026-05-06 07:40 18.66692 -99.25946 20938 ft 397 kts 15°
2026-05-06 07:40 18.69347 -99.25149 20959 ft 397 kts 18°
2026-05-06 07:40 18.71984 -99.24299 20977 ft 396 kts 18°
2026-05-06 07:41 18.74623 -99.23447 20997 ft 396 kts 18°
2026-05-06 07:41 18.77261 -99.22601 21002 ft 396 kts 18°
2026-05-06 07:41 18.79877 -99.21768 20887 ft 388 kts 18°
2026-05-06 07:41 18.82453 -99.20950 20388 ft 386 kts 18°
2026-05-06 07:42 18.85018 -99.20137 19889 ft 384 kts 18°
2026-05-06 07:42 18.87558 -99.19332 19437 ft 380 kts 18°
2026-05-06 07:42 18.90079 -99.18533 18980 ft 377 kts 18°
2026-05-06 07:42 18.92583 -99.17740 18511 ft 373 kts 18°
2026-05-06 07:43 18.95051 -99.16958 17808 ft 368 kts 18°
2026-05-06 07:43 18.97491 -99.16183 17021 ft 365 kts 17°
2026-05-06 07:43 18.99910 -99.15415 16212 ft 360 kts 17°
2026-05-06 07:43 19.02297 -99.14657 15484 ft 357 kts 17°
2026-05-06 07:44 19.04654 -99.13910 14924 ft 350 kts 17°
2026-05-06 07:44 19.06964 -99.13176 14365 ft 343 kts 17°
2026-05-06 07:44 19.09189 -99.12469 13900 ft 334 kts 16°
2026-05-06 07:44 19.11388 -99.11769 13476 ft 325 kts 16°
2026-05-06 07:45 19.13480 -99.11101 13381 ft 304 kts 17°
2026-05-06 07:45 19.15444 -99.10473 13297 ft 286 kts 16°
2026-05-06 07:45 19.17299 -99.09879 13187 ft 272 kts 17°
2026-05-06 07:45 19.19086 -99.09306 12874 ft 265 kts 16°
2026-05-06 07:46 19.20845 -99.08743 12564 ft 264 kts 16°
2026-05-06 07:46 19.22634 -99.08308 12280 ft 263 kts
2026-05-06 07:46 19.24410 -99.08621 11994 ft 260 kts 333°
2026-05-06 07:46 19.25806 -99.09800 11720 ft 258 kts 310°
2026-05-06 07:47 19.26935 -99.11288 11400 ft 260 kts 306°
2026-05-06 07:47 19.28015 -99.12824 11092 ft 261 kts 305°
2026-05-06 07:47 19.29097 -99.14364 10789 ft 261 kts 306°
2026-05-06 07:47 19.30184 -99.15897 10510 ft 258 kts 306°
2026-05-06 07:48 19.31260 -99.17400 10184 ft 254 kts 307°
2026-05-06 07:48 19.32475 -99.18720 9881 ft 246 kts 324°
2026-05-06 07:48 19.33982 -99.19448 9635 ft 234 kts 349°
2026-05-06 07:48 19.35569 -99.19456 9311 ft 228 kts 12°
2026-05-06 07:49 19.37003 -99.18769 9008 ft 227 kts 36°
2026-05-06 07:49 19.38047 -99.17559 8826 ft 219 kts 53°
2026-05-06 07:49 19.38815 -99.16250 8784 ft 197 kts 56°
2026-05-06 07:49 19.39444 -99.15093 8763 ft 170 kts 57°
2026-05-06 07:50 19.40014 -99.14043 8485 ft 158 kts 56°
2026-05-06 07:50 19.40518 -99.13081 8303 ft 143 kts 59°
2026-05-06 07:50 19.41015 -99.12160 8082 ft 146 kts 58°
2026-05-06 07:50 19.41550 -99.11230 7905 ft 149 kts 61°
2026-05-06 07:51 19.42072 -99.10281 7679 ft 149 kts 61°
2026-05-06 07:51 19.42610 -99.09320 7474 ft 152 kts 62°
2026-05-06 07:51 19.43150 -99.08359 7320 ft 147 kts 63°
2026-05-06 07:51 19.43627 -99.07502 7306 ft 123 kts 60°
2026-05-06 07:52 19.44023 -99.06788 7307 ft 101 kts 60°
2026-05-06 07:52 19.44282 -99.06344 7306 ft 35 kts 50°
2026-05-06 07:52 19.44365 -99.06297 7306 ft 5 kts 350°
2026-05-06 07:52 19.44394 -99.06309 7306 ft 4 kts 330°
2026-05-06 07:53 19.44422 -99.06329 7306 ft 6 kts 324°
2026-05-06 07:53 19.44455 -99.06398 7306 ft 15 kts 266°
2026-05-06 07:53 19.44401 -99.06508 7306 ft 17 kts 237°
2026-05-06 07:53 19.44338 -99.06615 7306 ft 18 kts 238°
2026-05-06 07:54 19.44278 -99.06727 7306 ft 17 kts 239°
2026-05-06 07:54 19.44222 -99.06828 7306 ft 15 kts 239°
2026-05-06 07:54 19.44165 -99.06928 7306 ft 21 kts 240°
2026-05-06 07:54 19.44077 -99.07084 7306 ft 28 kts 238°
2026-05-06 07:55 19.43977 -99.07264 7306 ft 28 kts 239°
2026-05-06 07:55 19.43882 -99.07431 7306 ft 25 kts 238°
2026-05-06 07:55 19.43794 -99.07584 7306 ft 23 kts 229°
2026-05-06 07:55 19.43694 -99.07621 7306 ft 13 kts 225°
2026-05-06 07:56 19.43639 -99.07716 7306 ft 19 kts 240°
2026-05-06 07:56 19.43559 -99.07858 7306 ft 26 kts 239°
2026-05-06 07:56 19.43463 -99.08028 7306 ft 26 kts 238°
2026-05-06 07:56 19.43384 -99.08166 7306 ft 11 kts 239°
2026-05-06 07:57 19.43375 -99.08204 7306 ft 0 kts 268°
2026-05-06 07:57 19.43388 -99.08231 7306 ft 7 kts 316°
2026-05-06 07:58 19.43423 -99.08255 7306 ft 0 kts 330°
2026-05-06 07:58 19.43427 -99.08257 7306 ft 2 kts 329°
2026-05-06 07:58 19.43432 -99.08260 7306 ft 0 kts 329°